Regional Weather Roundup
Issued by NWS Albany, NY

Home | Current Version | Previous Version | Graphics & Text | Print | Product List | Glossary On
Versions: 1 2 3 4 5 6 7 8 9 10 11 12 13 14 15 16 17 18 19 20 21 22 23 24 25 26 27 28 29 30 31 32 33 34 35 36 37 38 39 40 41 42 43 44 45 46 47 48 49 50
000
ASUS41 KALY 261610
RWRALY

NEW YORK STATE HOURLY WEATHER ROUNDUP
NATIONAL WEATHER SERVICE ALBANY NY
1100 AM EST WED NOV 26 2014

NOTE: "FAIR" INDICATES FEW OR NO CLOUDS BELOW 12,000 FEET WITH NO
SIGNIFICANT WEATHER AND/OR NO OBSTRUCTIONS TO VISIBILITY.

NYZ032-033-038>043-046>054-057>066-NYZ062>081-261700-
EAST


CITY           SKY/WX    TMP DP  RH WIND       PRES   REMARKS
ALBANY         LGT SNOW  36  27  69 VRB3      30.18R VSB 1
GLENS FALLS    CLOUDY    37  23  56 N10       30.15F WCI  30
POUGHKEEPSIE   HVY SNOW  33  31  92 N6        30.14F VSB 1/4 WCI  28
NEWBURGH       SNOW      32  32 100 NE8       30.16R VSB 3/8 WCI  25
MONTGOMERY     HVY SNOW  33  31  92 NE7       30.12F VSB 1/4 WCI  27
WHITE PLAINS   LGT SNOW  33  32  96 N3        30.11F VSB 1
ISLIP          LGTSLEET  38  35  89 N10       30.10F FOG     WCI  31
NEW YORK CITY  LGT SNOW  34  32  93 NE13      30.08F FOG     WCI  25
CENTRAL PARK   LGT SNOW  34  31  88 NE8       30.11F VSB 3/4 WCI  27
$$

NYZ005>009-017-018-044>046-055-056-261700-
CENTRAL


CITY           SKY/WX    TMP DP  RH WIND       PRES   REMARKS
FULTON         CLOUDY    35  24  64 N6        30.18R WCI  30
SYRACUSE       CLOUDY    36  25  64 NE6       30.18R WCI  31
ROME           CLOUDY    35  24  64 N5        30.17F WCI  31
ELMIRA         CLOUDY    36  24  62 NE6       30.14R WCI  31
BINGHAMTON     SNOW      30  26  85 NE5       30.11R VSB 1/2 WCI  25
MONTICELLO     CLOUDY    30  30 100 E5        30.08F VSB 1/2 WCI  25
$$

NYZ026>034-041>043-261700-
NORTH


CITY           SKY/WX    TMP DP  RH WIND       PRES   REMARKS
WATERTOWN      CLOUDY    34  22  61 NE10      30.19S WCI  26
FORT DRUM      NOT AVBL
MASSENA        CLOUDY    31  19  61 CALM      30.24F
SARANAC LAKE   CLOUDY    29  22  75 NE3       30.09F
PLATTSBURGH    CLOUDY    33  21  61 N7        30.20  WCI  27
$$

NYZ001>004-010>016-019>021-261700-
WEST


CITY           SKY/WX    TMP DP  RH WIND       PRES   REMARKS
NIAGARA FALLS  CLOUDY    33  24  69 E8        30.15F WCI  26
BUFFALO        CLOUDY    33  24  69 NE10      30.15R WCI  25
DUNKIRK        CLOUDY    34  24  67 NE7       30.14R WCI  28
JAMESTOWN      CLOUDY    30  21  69 E7        30.08S WCI  23
WELLSVILLE     CLOUDY    30  22  72 E3        30.10R
ROCHESTER      CLOUDY    36  27  69 NE8       30.15F WCI  30
PENN YAN       CLOUDY    34  23  64 CALM      30.15R
$$

             KEY
       WCI = WIND CHILL INDEX
       VSB = VISIBILITY
       HX  = HEAT INDEX
$$


USA.gov is the U.S. government's official web portal to all federal, state and local government web resources and services.